﻿測定場所 (Monitoring sites),日付 (Measurement date),時間 (Measurement time),線量率 最大値 (max) μGy/h,線量率 最小値 (min) μGy/h,線量率 平均値 (average) μGy/h,
小平 (Kodaira),2020-03-15,23:01～24:00,0.0322,0.0275,0.0300,
小平 (Kodaira),2020-03-15,22:01～23:00,0.0322,0.0282,0.0300,
小平 (Kodaira),2020-03-15,21:01～22:00,0.0317,0.0277,0.0298,
小平 (Kodaira),2020-03-15,20:01～21:00,0.0323,0.0276,0.0296,
小平 (Kodaira),2020-03-15,19:01～20:00,0.0309,0.0270,0.0290,
小平 (Kodaira),2020-03-15,18:01～19:00,0.0310,0.0268,0.0288,
小平 (Kodaira),2020-03-15,17:01～18:00,0.0308,0.0272,0.0289,
小平 (Kodaira),2020-03-15,16:01～17:00,0.0309,0.0275,0.0291,
小平 (Kodaira),2020-03-15,15:01～16:00,0.0311,0.0265,0.0292,
小平 (Kodaira),2020-03-15,14:01～15:00,0.0312,0.0276,0.0292,
小平 (Kodaira),2020-03-15,13:01～14:00,0.0317,0.0275,0.0293,
小平 (Kodaira),2020-03-15,12:01～13:00,0.0310,0.0274,0.0291,
小平 (Kodaira),2020-03-15,11:01～12:00,0.0316,0.0267,0.0291,
小平 (Kodaira),2020-03-15,10:01～11:00,0.0311,0.0271,0.0289,
小平 (Kodaira),2020-03-15,09:01～10:00,0.0318,0.0277,0.0292,
小平 (Kodaira),2020-03-15,08:01～09:00,0.0309,0.0275,0.0294,
小平 (Kodaira),2020-03-15,07:01～08:00,0.0317,0.0274,0.0295,
小平 (Kodaira),2020-03-15,06:01～07:00,0.0324,0.0283,0.0301,
小平 (Kodaira),2020-03-15,05:01～06:00,0.0333,0.0287,0.0307,
小平 (Kodaira),2020-03-15,04:01～05:00,0.0323,0.0277,0.0301,
小平 (Kodaira),2020-03-15,03:01～04:00,0.0315,0.0270,0.0293,
小平 (Kodaira),2020-03-15,02:01～03:00,0.0317,0.0275,0.0294,
小平 (Kodaira),2020-03-15,01:01～02:00,0.0314,0.0277,0.0294,
小平 (Kodaira),2020-03-15,00:01～01:00,0.0311,0.0270,0.0292,
小平 (Kodaira),2020-03-14,23:01～24:00,0.0313,0.0273,0.0294,
小平 (Kodaira),2020-03-14,22:01～23:00,0.0318,0.0271,0.0296,
小平 (Kodaira),2020-03-14,21:01～22:00,0.0315,0.0280,0.0295,
小平 (Kodaira),2020-03-14,20:01～21:00,0.0334,0.0287,0.0309,
小平 (Kodaira),2020-03-14,19:01～20:00,0.0336,0.0299,0.0318,
小平 (Kodaira),2020-03-14,18:01～19:00,0.0365,0.0314,0.0336,
小平 (Kodaira),2020-03-14,17:01～18:00,0.0416,0.0335,0.0364,
小平 (Kodaira),2020-03-14,16:01～17:00,0.0426,0.0363,0.0397,
小平 (Kodaira),2020-03-14,15:01～16:00,0.0468,0.0366,0.0422,
小平 (Kodaira),2020-03-14,14:01～15:00,0.0482,0.0413,0.0450,
小平 (Kodaira),2020-03-14,13:01～14:00,0.0457,0.0393,0.0431,
小平 (Kodaira),2020-03-14,12:01～13:00,0.0447,0.0382,0.0414,
小平 (Kodaira),2020-03-14,11:01～12:00,0.0455,0.0372,0.0424,
小平 (Kodaira),2020-03-14,10:01～11:00,0.0494,0.0395,0.0447,
小平 (Kodaira),2020-03-14,09:01～10:00,0.0480,0.0407,0.0442,
小平 (Kodaira),2020-03-14,08:01～09:00,0.0449,0.0329,0.0389,
小平 (Kodaira),2020-03-14,07:01～08:00,0.0343,0.0278,0.0306,
小平 (Kodaira),2020-03-14,06:01～07:00,0.0321,0.0272,0.0293,
小平 (Kodaira),2020-03-14,05:01～06:00,0.0313,0.0274,0.0293,
小平 (Kodaira),2020-03-14,04:01～05:00,0.0312,0.0278,0.0295,
小平 (Kodaira),2020-03-14,03:01～04:00,0.0321,0.0280,0.0298,
小平 (Kodaira),2020-03-14,02:01～03:00,0.0322,0.0285,0.0299,
小平 (Kodaira),2020-03-14,01:01～02:00,0.0323,0.0283,0.0301,
小平 (Kodaira),2020-03-14,00:01～01:00,0.0333,0.0283,0.0301,
小平 (Kodaira),2020-03-13,23:01～24:00,0.0316,0.0276,0.0298,
小平 (Kodaira),2020-03-13,22:01～23:00,0.0316,0.0276,0.0297,
小平 (Kodaira),2020-03-13,21:01～22:00,0.0319,0.0268,0.0296,
小平 (Kodaira),2020-03-13,20:01～21:00,0.0318,0.0274,0.0297,
小平 (Kodaira),2020-03-13,19:01～20:00,0.0318,0.0274,0.0296,
小平 (Kodaira),2020-03-13,18:01～19:00,0.0315,0.0274,0.0293,
小平 (Kodaira),2020-03-13,17:01～18:00,0.0317,0.0276,0.0297,
小平 (Kodaira),2020-03-13,16:01～17:00,0.0312,0.0273,0.0294,
小平 (Kodaira),2020-03-13,15:01～16:00,0.0321,0.0274,0.0296,
小平 (Kodaira),2020-03-13,14:01～15:00,0.0317,0.0276,0.0296,
小平 (Kodaira),2020-03-13,13:01～14:00,0.0314,0.0279,0.0296,
小平 (Kodaira),2020-03-13,12:01～13:00,0.0315,0.0274,0.0293,
小平 (Kodaira),2020-03-13,11:01～12:00,0.0320,0.0268,0.0295,
小平 (Kodaira),2020-03-13,10:01～11:00,0.0319,0.0273,0.0301,
小平 (Kodaira),2020-03-13,09:01～10:00,0.0322,0.0282,0.0303,
小平 (Kodaira),2020-03-13,08:01～09:00,0.0325,0.0289,0.0308,
小平 (Kodaira),2020-03-13,07:01～08:00,0.0331,0.0290,0.0308,
小平 (Kodaira),2020-03-13,06:01～07:00,0.0332,0.0294,0.0312,
小平 (Kodaira),2020-03-13,05:01～06:00,0.0330,0.0295,0.0308,
小平 (Kodaira),2020-03-13,04:01～05:00,0.0314,0.0278,0.0296,
小平 (Kodaira),2020-03-13,03:01～04:00,0.0324,0.0266,0.0297,
小平 (Kodaira),2020-03-13,02:01～03:00,0.0315,0.0277,0.0298,
小平 (Kodaira),2020-03-13,01:01～02:00,0.0328,0.0279,0.0297,
小平 (Kodaira),2020-03-13,00:01～01:00,0.0314,0.0276,0.0293,
小平 (Kodaira),2020-03-12,23:01～24:00,0.0321,0.0275,0.0293,
小平 (Kodaira),2020-03-12,22:01～23:00,0.0312,0.0270,0.0293,
小平 (Kodaira),2020-03-12,21:01～22:00,0.0318,0.0270,0.0296,
小平 (Kodaira),2020-03-12,20:01～21:00,0.0310,0.0276,0.0292,
小平 (Kodaira),2020-03-12,19:01～20:00,0.0321,0.0277,0.0295,
小平 (Kodaira),2020-03-12,18:01～19:00,0.0315,0.0279,0.0295,
小平 (Kodaira),2020-03-12,17:01～18:00,0.0311,0.0264,0.0294,
小平 (Kodaira),2020-03-12,16:01～17:00,0.0309,0.0273,0.0292,
小平 (Kodaira),2020-03-12,15:01～16:00,0.0311,0.0270,0.0294,
小平 (Kodaira),2020-03-12,14:01～15:00,0.0312,0.0273,0.0292,
小平 (Kodaira),2020-03-12,13:01～14:00,0.0309,0.0271,0.0297,
小平 (Kodaira),2020-03-12,12:01～13:00,0.0314,0.0274,0.0296,
小平 (Kodaira),2020-03-12,11:01～12:00,0.0315,0.0279,0.0298,
小平 (Kodaira),2020-03-12,10:01～11:00,0.0316,0.0281,0.0298,
小平 (Kodaira),2020-03-12,09:01～10:00,0.0322,0.0279,0.0298,
小平 (Kodaira),2020-03-12,08:01～09:00,0.0316,0.0278,0.0296,
小平 (Kodaira),2020-03-12,07:01～08:00,0.0315,0.0276,0.0296,
小平 (Kodaira),2020-03-12,06:01～07:00,0.0315,0.0274,0.0295,
小平 (Kodaira),2020-03-12,05:01～06:00,0.0314,0.0272,0.0295,
小平 (Kodaira),2020-03-12,04:01～05:00,0.0309,0.0272,0.0295,
小平 (Kodaira),2020-03-12,03:01～04:00,0.0320,0.0274,0.0295,
小平 (Kodaira),2020-03-12,02:01～03:00,0.0323,0.0283,0.0299,
小平 (Kodaira),2020-03-12,01:01～02:00,0.0314,0.0273,0.0296,
小平 (Kodaira),2020-03-12,00:01～01:00,0.0321,0.0281,0.0297,
小平 (Kodaira),2020-03-11,23:01～24:00,0.0321,0.0280,0.0299,
小平 (Kodaira),2020-03-11,22:01～23:00,0.0318,0.0273,0.0300,
小平 (Kodaira),2020-03-11,21:01～22:00,0.0311,0.0273,0.0295,
小平 (Kodaira),2020-03-11,20:01～21:00,0.0317,0.0280,0.0298,
小平 (Kodaira),2020-03-11,19:01～20:00,0.0321,0.0278,0.0298,
小平 (Kodaira),2020-03-11,18:01～19:00,0.0316,0.0275,0.0290,
小平 (Kodaira),2020-03-11,17:01～18:00,0.0303,0.0270,0.0288,
小平 (Kodaira),2020-03-11,16:01～17:00,0.0305,0.0270,0.0291,
小平 (Kodaira),2020-03-11,15:01～16:00,0.0309,0.0272,0.0291,
小平 (Kodaira),2020-03-11,14:01～15:00,0.0319,0.0271,0.0291,
小平 (Kodaira),2020-03-11,13:01～14:00,0.0312,0.0267,0.0291,
小平 (Kodaira),2020-03-11,12:01～13:00,0.0322,0.0272,0.0291,
小平 (Kodaira),2020-03-11,11:01～12:00,0.0305,0.0264,0.0290,
小平 (Kodaira),2020-03-11,10:01～11:00,0.0305,0.0267,0.0290,
小平 (Kodaira),2020-03-11,09:01～10:00,0.0318,0.0270,0.0293,
小平 (Kodaira),2020-03-11,08:01～09:00,0.0309,0.0275,0.0292,
小平 (Kodaira),2020-03-11,07:01～08:00,0.0310,0.0271,0.0293,
小平 (Kodaira),2020-03-11,06:01～07:00,0.0330,0.0268,0.0294,
小平 (Kodaira),2020-03-11,05:01～06:00,0.0342,0.0280,0.0300,
小平 (Kodaira),2020-03-11,04:01～05:00,0.0316,0.0272,0.0295,
小平 (Kodaira),2020-03-11,03:01～04:00,0.0319,0.0275,0.0295,
小平 (Kodaira),2020-03-11,02:01～03:00,0.0317,0.0273,0.0293,
小平 (Kodaira),2020-03-11,01:01～02:00,0.0315,0.0281,0.0296,
小平 (Kodaira),2020-03-11,00:01～01:00,0.0307,0.0272,0.0290,
小平 (Kodaira),2020-03-10,23:01～24:00,0.0313,0.0271,0.0288,
小平 (Kodaira),2020-03-10,22:01～23:00,0.0307,0.0269,0.0291,
小平 (Kodaira),2020-03-10,21:01～22:00,0.0313,0.0264,0.0294,
小平 (Kodaira),2020-03-10,20:01～21:00,0.0340,0.0288,0.0312,
小平 (Kodaira),2020-03-10,19:01～20:00,0.0428,0.0323,0.0364,
小平 (Kodaira),2020-03-10,18:01～19:00,0.0453,0.0367,0.0410,
小平 (Kodaira),2020-03-10,17:01～18:00,0.0421,0.0351,0.0384,
小平 (Kodaira),2020-03-10,16:01～17:00,0.0369,0.0309,0.0326,
小平 (Kodaira),2020-03-10,15:01～16:00,0.0374,0.0306,0.0334,
小平 (Kodaira),2020-03-10,14:01～15:00,0.0396,0.0345,0.0365,
小平 (Kodaira),2020-03-10,13:01～14:00,0.0387,0.0321,0.0346,
小平 (Kodaira),2020-03-10,12:01～13:00,0.0357,0.0306,0.0328,
小平 (Kodaira),2020-03-10,11:01～12:00,0.0362,0.0322,0.0337,
小平 (Kodaira),2020-03-10,10:01～11:00,0.0357,0.0308,0.0337,
小平 (Kodaira),2020-03-10,09:01～10:00,0.0344,0.0305,0.0324,
小平 (Kodaira),2020-03-10,08:01～09:00,0.0331,0.0288,0.0311,
小平 (Kodaira),2020-03-10,07:01～08:00,0.0324,0.0288,0.0306,
小平 (Kodaira),2020-03-10,06:01～07:00,0.0337,0.0279,0.0300,
小平 (Kodaira),2020-03-10,05:01～06:00,0.0316,0.0269,0.0298,
小平 (Kodaira),2020-03-10,04:01～05:00,0.0320,0.0271,0.0294,
小平 (Kodaira),2020-03-10,03:01～04:00,0.0311,0.0275,0.0293,
小平 (Kodaira),2020-03-10,02:01～03:00,0.0311,0.0268,0.0292,
小平 (Kodaira),2020-03-10,01:01～02:00,0.0316,0.0281,0.0294,
小平 (Kodaira),2020-03-10,00:01～01:00,0.0314,0.0272,0.0295,
小平 (Kodaira),2020-03-09,23:01～24:00,0.0317,0.0270,0.0288,
小平 (Kodaira),2020-03-09,22:01～23:00,0.0304,0.0272,0.0289,
小平 (Kodaira),2020-03-09,21:01～22:00,0.0313,0.0270,0.0290,
小平 (Kodaira),2020-03-09,20:01～21:00,0.0310,0.0270,0.0287,
小平 (Kodaira),2020-03-09,19:01～20:00,0.0302,0.0269,0.0287,
小平 (Kodaira),2020-03-09,18:01～19:00,0.0310,0.0272,0.0288,
小平 (Kodaira),2020-03-09,17:01～18:00,0.0306,0.0268,0.0286,
小平 (Kodaira),2020-03-09,16:01～17:00,0.0306,0.0261,0.0287,
小平 (Kodaira),2020-03-09,15:01～16:00,0.0308,0.0273,0.0288,
小平 (Kodaira),2020-03-09,14:01～15:00,0.0308,0.0266,0.0290,
小平 (Kodaira),2020-03-09,13:01～14:00,0.0309,0.0270,0.0293,
小平 (Kodaira),2020-03-09,12:01～13:00,0.0318,0.0270,0.0292,
小平 (Kodaira),2020-03-09,11:01～12:00,0.0315,0.0272,0.0295,
小平 (Kodaira),2020-03-09,10:01～11:00,0.0317,0.0278,0.0298,
小平 (Kodaira),2020-03-09,09:01～10:00,0.0322,0.0285,0.0300,
小平 (Kodaira),2020-03-09,08:01～09:00,0.0322,0.0282,0.0302,
小平 (Kodaira),2020-03-09,07:01～08:00,0.0319,0.0278,0.0299,
小平 (Kodaira),2020-03-09,06:01～07:00,0.0325,0.0281,0.0298,
小平 (Kodaira),2020-03-09,05:01～06:00,0.0317,0.0282,0.0300,
小平 (Kodaira),2020-03-09,04:01～05:00,0.0319,0.0286,0.0302,
小平 (Kodaira),2020-03-09,03:01～04:00,0.0317,0.0272,0.0294,
小平 (Kodaira),2020-03-09,02:01～03:00,0.0307,0.0274,0.0289,
小平 (Kodaira),2020-03-09,01:01～02:00,0.0311,0.0276,0.0294,
小平 (Kodaira),2020-03-09,00:01～01:00,0.0323,0.0274,0.0294,
